Location: Nemiskam
(49.4820°N, 111.2775°W)
Time: 09:57:53
(UTC+00:00)

Envisat - Pass Details

Date: 30 November 2022
Orbit: 763 x 765 km, 98.2° (Epoch: 28 January)

Event Time Altitude Azimuth Distance (km) Brightness Sun altitude
Rises 11:12:04 0° 19° (NNE) 3,246 6.6 -35.9°
Reaches altitude 10° 11:14:30 10° 26° (NNE) 2,315 5.8 -35.5°
Enters shadow 11:16:58 26° 43° (NE) 1,477 4.8 -35.1°
